map of BED home
Great Circle Mapper logo
BED - Airport
Location
City:  Bedford, Massachusetts, United States
Name:Laurence G Hanscom Field
ICAO / IATA:KBED / BED
FAA:BED

Details
Type:Airport (Part 139 Class I)
Use:Public/Civil, International (customs landing rights)
Latitude:4228'12"N (42.469944)
Longitude:7117'20"W (-71.288999)
Datum:WGS 1984
Elevation:132 ft (40 m)
Runways:2
Longest:7011 × 150 ft (2137 × 45.5 m), paved

Time
Time Zone:UTC-5 (DST-4)
Local Time:

Weather
METAR:KBED 272156Z 26004KT 10SM FEW055 FEW065 SCT080 28/21 A2984 RMK AO2 SLP114 T02830206
TAF:KBED 272042Z 2721/2818 24008G17KT P6SM VCSH SCT050
FM280000 24007KT P6SM VCSH BKN050
FM280600 31004KT P6SM SCT130
FM281400 33008KT P6SM SCT060

Related Locations
Nearby:
Farthest:MGV: 11750 mi / 18909 km
Margaret River, WA, AU

Find:

   beyond  
but within

Other Information
Maps:
Delays:
NOTAMs:
Links:
Sources:

  
flag of United States
flag of Massachusetts
  

Airport Diagram

Airport diagram for BED

Airport diagram PDF

Sectional Chart

Flight Planning
at skyvector.com

Satellite Image

Google Maps Satellite View

 

Copyright © 2004-2014 Karl L. Swartz. All rights reserved.
The Great Circle Mapper name and logo are trademarks of the Great Circle Mapper.
All other trademarks mentioned herein belong to their respective owners.
Please see credits for attibutions and further copyright information.

  Follow gcmap on Facebook Follow gcmap on Twitter

hCard Microformat

Geo Microformat